This is the latest recevied weather packets stored in our database for station/object LU1MQF-13. If no packets are shown the sender has not sent any weather packets the latest 10 day(s).
| Time | Temp. | Humidity | Pressure | Rain* | Wind** | Luminosity | Snow |
|---|---|---|---|---|---|---|---|
| 1777859825 | 15° C | 45% | 933.5 hPa | - | - | - | - |
| 1777858924 | 15° C | 43% | 933.7 hPa | - | - | - | - |
| 1777858024 | 15° C | 43% | 933.7 hPa | - | - | - | - |
| 1777857124 | 15° C | 44% | 933.9 hPa | - | - | - | - |
| 1777856225 | 15° C | 44% | 934 hPa | - | - | - | - |
| 1777855324 | 15° C | 45% | 933.9 hPa | - | - | - | - |
| 1777854424 | 16.11° C | 46% | 933.7 hPa | - | - | - | - |
| 1777853524 | 16.11° C | 47% | 933.9 hPa | - | - | - | - |
| 1777852624 | 16.11° C | 53% | 934.1 hPa | - | - | - | - |
| 1777851725 | 16.11° C | 47% | 933.9 hPa | - | - | - | - |
| 1777850824 | 16.11° C | 46% | 934 hPa | - | - | - | - |
| 1777849924 | 16.11° C | 43% | 934.2 hPa | - | - | - | - |
| 1777848124 | 16.11° C | 35% | 934.2 hPa | - | - | - | - |
| 1777847232 | 17.22° C | 35% | 934 hPa | - | - | - | - |
| 1777846324 | 17.22° C | 35% | 933.8 hPa | - | - | - | - |
| 1777845424 | 17.78° C | 35% | 933.5 hPa | - | - | - | - |
| 1777844524 | 18.89° C | 35% | 933.6 hPa | - | - | - | - |
| 1777843624 | 18.89° C | 33% | 933.4 hPa | - | - | - | - |
| 1777842724 | 18.89° C | 33% | 933.4 hPa | - | - | - | - |
| 1777841824 | 20° C | 32% | 933.4 hPa | - | - | - | - |
| 1777840924 | 20° C | 31% | 933.6 hPa | - | - | - | - |
| 1777840024 | 21.11° C | 30% | 933.6 hPa | - | - | - | - |
| 1777839124 | 21.11° C | 30% | 933.6 hPa | - | - | - | - |
| 1777838224 | 21.11° C | 30% | 933.5 hPa | - | - | - | - |
| 1777837323 | 21.11° C | 30% | 933.7 hPa | - | - | - | - |
* Rain since midnight (hover to see other rain measurements)
** Current wind speed in m/s (hover to see current wind gust speed)